Weather Roundup
Issued by NWS Springfield, MO

Home | Current Version | Previous Version | Text Only | Print | Product List | Glossary On
Versions: 1 2 3 4 5 6 7 8 9 10 11 12 13 14 15 16 17 18 19 20 21 22 23 24 25 26 27 28 29 30 31 32 33 34 35 36 37 38 39 40 41 42 43 44 45 46 47 48 49 50
000
NZUS99 KSGF 200607
HRRSGF

HOURLY WEATHER
NATIONAL WEATHER SERVICE SPRINGFIELD MO
100 AM CDT SUN AUG 20 2017

......SGF CWA......

CITY           SKY/WX    TMP DP  RH WIND       PRES   REMARKS
SPRINGFIELD    CLEAR     79  74  84 S9        30.00F
6HR MIN TEMP:  78; 6HR MAX TEMP:  87;

JOPLIN         CLOUDY    81  76  84 S8        29.98S
6HR MIN TEMP:  81; 6HR MAX TEMP:  88;

WEST PLAINS    PTCLDY    73  70  90 S3        30.04S
6HR MIN TEMP:  73; 6HR MAX TEMP:  87;

ROLLA          CLEAR     70  67  90 CALM      30.01S
6HR MIN TEMP:  69; 6HR MAX TEMP:  84;

OSAGE BEACH    CLEAR     73  72  96 S3        29.99S
BRANSON        MOCLDY    77  75  94 S5        30.03S

......SURROUNDING SGF CWA......

CITY           SKY/WX    TMP DP  RH WIND       PRES   REMARKS
CHANUTE        CLEAR     79  76  90 SE5       29.96R
PARSONS        MOCLDY    81  75  82 SE3       29.96S
COFFEYVILLE    MOCLDY    81  76  84 S7        29.94S
EMPORIA        CLEAR     78  74  87 S10       29.93S
GROVE OK       CLOUDY    81  73  78 S6        29.99S
ROGERS AR      PTCLDY    77  73  87 SE7       30.03S
SILOAM SPRINGS PTCLDY    75  70  83 SE5       30.01S
HARRISON AR    CLOUDY    76  74  93 S3        30.03F
NEAR YELLVILLE PTCLDY    79  70  73 CALM      29.99R

......KANSAS AND MISSOURI......

CITY           SKY/WX    TMP DP  RH WIND       PRES   REMARKS
KANSAS CTY INT CLEAR     77  73  87 S12       29.91F
DOWNTOWN KC    CLEAR     84  74  71 S12       29.90F HX  91
COLUMBIA       CLEAR     73  71  93 S5        29.97F
SEDALIA        CLEAR     72  70  93 S7        29.97S
ST JOSEPH      CLEAR     76  73  91 S9        29.89F
ST LOUIS       PTCLDY    79  68  69 E5        29.98R
SPIRIT OF STL  CLEAR     71  69  93 CALM      29.96S
KIRKSVILLE     CLOUDY    62  58  86 CALM      29.96F
WICHITA        PTCLDY    77  72  84 S8        29.93R
TOPEKA         CLOUDY    81  77  88 S8        29.89F
OLATHE         CLOUDY    76  75  97 S7        29.94F

......TENNESSEE......

CITY           SKY/WX    TMP DP  RH WIND       PRES   REMARKS
MEMPHIS        CLOUDY    80  76  87 SW3       29.99S
NASHVILLE      PTCLDY    75  71  87 S3        30.02S

......ARKANSAS.......

CITY           SKY/WX    TMP DP  RH WIND       PRES   REMARKS
FAYETTEVILLE   PTCLDY    72  72 100 CALM      30.03S
FT SMITH       CLEAR     81  78  91 NE5       29.97S
LITTLE ROCK    PTCLDY    80  78  94 CALM      29.98S

......OKLAHOMA.......

CITY           SKY/WX    TMP DP  RH WIND       PRES   REMARKS
TULSA          MOCLDY    85  76  74 S12       29.94R HX  94
PONCA CITY     PTCLDY    83  72  69 S6        29.94R
MCALESTER      CLEAR     82  75  79 S3        29.98S
OKLAHOMA CITY  PTCLDY    74  68  81 S7        29.97F

......IOWA............

CITY           SKY/WX    TMP DP  RH WIND       PRES   REMARKS
DES MOINES     CLOUDY    72  64  76 SE9       29.91F
QUAD CITIES    CLEAR     63  59  87 E5        29.97S

......ILLINOIS........

CITY           SKY/WX    TMP DP  RH WIND       PRES   REMARKS
QUINCY         CLEAR     70  67  90 SE7       29.96S
CHICAGO        CLEAR     68  56  65 CALM      30.00R




USA.gov is the U.S. government's official web portal to all federal, state and local government web resources and services.